,,,PA_Meas_PMT16A,,PR_Meas_QMR101_102,,RH_Meas_QMH101,,SR_Meas_QMS101,,TA_Meas_QMH101,,GenWind,,GenWind,
date,time,status,PA,status,PR,status,RH,status,SR,status,TA,status,DirAvg,status,SpdAvg,
2009-03-21, 00:00:04,VALID,1008.98,VALID,0,VALID,86.5981,VALID,0,VALID,22.2507,VALID,142,VALID,0,
2009-03-21, 00:01:04,VALID,1008.98,VALID,0,VALID,86.5981,VALID,0,VALID,22.2312,VALID,142,VALID,0,
2009-03-21, 00:02:04,VALID,1008.97,VALID,0,VALID,86.6286,VALID,0.105969,VALID,22.2312,VALID,142,VALID,0,
2009-03-21, 00:03:04,VALID,1008.92,VALID,0,VALID,86.6057,VALID,0.105969,VALID,22.2118,VALID,142,VALID,0,
2009-03-21, 00:04:04,VALID,1008.93,VALID,0,VALID,86.5981,VALID,0,VALID,22.2118,VALID,142,VALID,0,
2009-03-21, 00:05:04,VALID,1008.91,VALID,0,VALID,86.6209,VALID,0.105969,VALID,22.1728,VALID,142,VALID,0,
2009-03-21, 00:06:04,VALID,1008.89,VALID,0,VALID,86.6133,VALID,0.105969,VALID,22.1923,VALID,142,VALID,0,
2009-03-21, 00:07:04,VALID,1008.9,VALID,0,VALID,86.6133,VALID,0.105969,VALID,22.1711,VALID,142,VALID,0,
2009-03-21, 00:08:04,VALID,1008.86,VALID,0,VALID,86.6286,VALID,0.105969,VALID,22.1923,VALID,142,VALID,0,
2009-03-21, 00:09:04,VALID,1008.87,VALID,0,VALID,86.6286,VALID,0,VALID,22.1517,VALID,142,VALID,0,
2009-03-21, 00:10:04,VALID,1008.88,VALID,0,VALID,86.6514,VALID,0.105969,VALID,22.1533,VALID,142,VALID,0,
2009-03-21, 00:11:04,VALID,1008.88,VALID,0,VALID,86.6362,VALID,0.105969,VALID,22.0932,VALID,142,VALID,0,
2009-03-21, 00:12:04,VALID,1008.89,VALID,0,VALID,86.6514,VALID,0.105969,VALID,22.0949,VALID,142,VALID,0,
2009-03-21, 00:13:04,VALID,1008.88,VALID,0,VALID,86.6743,VALID,0.105969,VALID,22.056,VALID,142,VALID,0,
2009-03-21, 00:14:04,VALID,1008.89,VALID,0,VALID,86.6591,VALID,0,VALID,22.017,VALID,142,VALID,0,
2009-03-21, 00:15:04,VALID,1008.86,VALID,0,VALID,86.6743,VALID,0.105969,VALID,22.0365,VALID,142,VALID,0,
2009-03-21, 00:16:04,VALID,1008.88,VALID,0,VALID,86.6591,VALID,0.105969,VALID,22.017,VALID,142,VALID,0,
2009-03-21, 00:17:04,VALID,1008.87,VALID,0,VALID,86.6896,VALID,0.105969,VALID,22.0365,VALID,142,VALID,0,
2009-03-21, 00:18:04,VALID,1008.86,VALID,0,VALID,86.6819,VALID,0.105969,VALID,22.0754,VALID,142,VALID,0,
2009-03-21, 00:19:04,VALID,1008.86,VALID,0,VALID,86.6819,VALID,0.105969,VALID,22.0949,VALID,142,VALID,0,
2009-03-21, 00:20:04,VALID,1008.85,VALID,0,VALID,86.6743,VALID,0.105969,VALID,22.1144,VALID,142,VALID,0,
2009-03-21, 00:21:04,VALID,1008.85,VALID,0,VALID,86.6819,VALID,0.105969,VALID,22.1339,VALID,142,VALID,0,
2009-03-21, 00:22:04,VALID,1008.88,VALID,0,VALID,86.6819,VALID,0.105969,VALID,22.1339,VALID,142,VALID,0,
2009-03-21, 00:23:04,VALID,1008.87,VALID,0,VALID,86.6819,VALID,0.105969,VALID,22.1339,VALID,142,VALID,0,
2009-03-21, 00:24:04,VALID,1008.89,VALID,0,VALID,86.6743,VALID,0,VALID,22.1339,VALID,142,VALID,0,
2009-03-21, 00:25:04,VALID,1008.85,VALID,0,VALID,86.7201,VALID,0.105969,VALID,22.0949,VALID,142,VALID,0,
2009-03-21, 00:26:04,VALID,1008.82,VALID,0,VALID,86.6896,VALID,0.105969,VALID,22.0949,VALID,142,VALID,0,
2009-03-21, 00:27:04,VALID,1008.82,VALID,0,VALID,86.6972,VALID,0.105969,VALID,22.056,VALID,142,VALID,0,
2009-03-21, 00:28:04,VALID,1008.8,VALID,0,VALID,86.6972,VALID,0,VALID,22.0382,VALID,142,VALID,0,
2009-03-21, 00:29:04,VALID,1008.8,VALID,0,VALID,86.7048,VALID,0,VALID,22.0187,VALID,142,VALID,0,
2009-03-21, 00:30:04,VALID,1008.79,VALID,0,VALID,86.6972,VALID,0,VALID,22.0187,VALID,142,VALID,0,
2009-03-21, 00:31:04,VALID,1008.79,VALID,0,VALID,86.7124,VALID,0,VALID,22.0382,VALID,142,VALID,0,
2009-03-21, 00:32:04,VALID,1008.78,VALID,0,VALID,86.7124,VALID,0,VALID,22.0382,VALID,142,VALID,0,
2009-03-21, 00:33:04,VALID,1008.8,VALID,0,VALID,86.7124,VALID,0,VALID,21.9992,VALID,142,VALID,0,
2009-03-21, 00:34:04,VALID,1008.79,VALID,0,VALID,86.7124,VALID,0,VALID,22.0187,VALID,142,VALID,0,
2009-03-21, 00:35:04,VALID,1008.8,VALID,0,VALID,86.7201,VALID,0,VALID,21.9797,VALID,142,VALID,0,
2009-03-21, 00:36:04,VALID,1008.77,VALID,0,VALID,86.7201,VALID,0,VALID,21.9408,VALID,142,VALID,0,
2009-03-21, 00:37:04,VALID,1008.77,VALID,0,VALID,86.7048,VALID,0,VALID,21.9002,VALID,142,VALID,0,
2009-03-21, 00:38:04,VALID,1008.77,VALID,0,VALID,86.7353,VALID,0,VALID,21.9035,VALID,142,VALID,0,
2009-03-21, 00:39:04,VALID,1008.74,VALID,0,VALID,86.7124,VALID,0,VALID,21.8629,VALID,142,VALID,0,
2009-03-21, 00:40:04,VALID,1008.72,VALID,0,VALID,86.7353,VALID,0,VALID,21.8629,VALID,142,VALID,0,
2009-03-21, 00:41:04,VALID,1008.69,VALID,0,VALID,86.7353,VALID,0,VALID,21.8434,VALID,142,VALID,0,
2009-03-21, 00:42:04,VALID,1008.69,VALID,0,VALID,86.7124,VALID,0,VALID,21.8418,VALID,142,VALID,0,
2009-03-21, 00:43:04,VALID,1008.65,VALID,0,VALID,86.7124,VALID,0,VALID,21.8629,VALID,142,VALID,0,
2009-03-21, 00:44:04,VALID,1008.61,VALID,0,VALID,86.7277,VALID,0,VALID,21.8418,VALID,142,VALID,0,
2009-03-21, 00:45:04,VALID,1008.6,VALID,0,VALID,86.7429,VALID,0,VALID,21.8645,VALID,142,VALID,0,
2009-03-21, 00:46:04,VALID,1008.59,VALID,0,VALID,86.7353,VALID,0,VALID,21.8239,VALID,142,VALID,0,
2009-03-21, 00:47:04,VALID,1008.59,VALID,0,VALID,86.7429,VALID,0,VALID,21.8028,VALID,142,VALID,0,
2009-03-21, 00:48:04,VALID,1008.61,VALID,0,VALID,86.7429,VALID,0,VALID,21.8239,VALID,142,VALID,0,
2009-03-21, 00:49:04,VALID,1008.58,VALID,0,VALID,86.7353,VALID,0,VALID,21.8434,VALID,142,VALID,0,
2009-03-21, 00:50:04,VALID,1008.57,VALID,0,VALID,86.7353,VALID,0,VALID,21.8434,VALID,35,VALID,0,
2009-03-21, 00:51:04,VALID,1008.55,VALID,0,VALID,86.7429,VALID,0,VALID,21.8434,VALID,35,VALID,0,
2009-03-21, 00:52:04,VALID,1008.54,VALID,0,VALID,86.7429,VALID,0,VALID,21.8434,VALID,35,VALID,0,
2009-03-21, 00:53:04,VALID,1008.53,VALID,0,VALID,86.7429,VALID,0,VALID,21.8239,VALID,35,VALID,0,
2009-03-21, 00:54:04,VALID,1008.48,VALID,0,VALID,86.7582,VALID,0,VALID,21.8239,VALID,35,VALID,0,
2009-03-21, 00:55:04,VALID,1008.48,VALID,0,VALID,86.7429,VALID,0,VALID,21.8045,VALID,35,VALID,0,
2009-03-21, 00:56:04,VALID,1008.47,VALID,0,VALID,86.7582,VALID,0,VALID,21.7655,VALID,35,VALID,0,
2009-03-21, 00:57:04,VALID,1008.42,VALID,0,VALID,86.7353,VALID,0,VALID,21.7054,VALID,35,VALID,0,
2009-03-21, 00:58:04,VALID,1008.41,VALID,0,VALID,86.7506,VALID,0,VALID,21.7071,VALID,35,VALID,0,
2009-03-21, 00:59:04,VALID,1008.39,VALID,0,VALID,86.7506,VALID,0,VALID,21.7071,VALID,35,VALID,0,
2009-03-21, 01:00:04,VALID,1008.4,VALID,0,VALID,86.7582,VALID,0,VALID,21.7071,VALID,35,VALID,0,
2009-03-21, 01:01:04,VALID,1008.37,VALID,0,VALID,86.7734,VALID,0,VALID,21.686,VALID,35,VALID,0,
2009-03-21, 01:02:04,VALID,1008.38,VALID,0,VALID,86.7582,VALID,0,VALID,21.7071,VALID,35,VALID,0,
2009-03-21, 01:03:04,VALID,1008.37,VALID,0,VALID,86.7582,VALID,0,VALID,21.6681,VALID,35,VALID,0,
2009-03-21, 01:04:04,VALID,1008.36,VALID,0,VALID,86.7658,VALID,0,VALID,21.6681,VALID,35,VALID,0,
2009-03-21, 01:05:04,VALID,1008.38,VALID,0,VALID,86.7658,VALID,0,VALID,21.6276,VALID,35,VALID,0,
2009-03-21, 01:06:04,VALID,1008.38,VALID,0,VALID,86.7582,VALID,0,VALID,21.6276,VALID,35,VALID,0,
2009-03-21, 01:07:04,VALID,1008.38,VALID,0,VALID,86.7582,VALID,0,VALID,21.6292,VALID,35,VALID,0,
2009-03-21, 01:08:04,VALID,1008.37,VALID,0,VALID,86.7734,VALID,0,VALID,21.6292,VALID,35,VALID,0,
2009-03-21, 01:09:04,VALID,1008.33,VALID,0,VALID,86.7734,VALID,0,VALID,21.6097,VALID,35,VALID,0,
2009-03-21, 01:10:04,VALID,1008.35,VALID,0,VALID,86.7811,VALID,0,VALID,21.6097,VALID,35,VALID,0,
2009-03-21, 01:11:04,VALID,1008.33,VALID,0,VALID,86.7887,VALID,0,VALID,21.5708,VALID,35,VALID,0,
2009-03-21, 01:12:04,VALID,1008.35,VALID,0,VALID,86.7734,VALID,0,VALID,21.5513,VALID,35,VALID,0,
2009-03-21, 01:13:04,VALID,1008.32,VALID,0,VALID,86.7658,VALID,0,VALID,21.5708,VALID,35,VALID,0,
2009-03-21, 01:14:04,VALID,1008.34,VALID,0,VALID,86.7658,VALID,0,VALID,21.5708,VALID,35,VALID,0,
2009-03-21, 01:15:04,VALID,1008.33,VALID,0,VALID,86.7734,VALID,0,VALID,21.5513,VALID,35,VALID,0,
2009-03-21, 01:16:04,VALID,1008.31,VALID,0,VALID,86.7658,VALID,0,VALID,21.5708,VALID,35,VALID,0,
2009-03-21, 01:17:04,VALID,1008.29,VALID,0,VALID,86.7734,VALID,0,VALID,21.5513,VALID,35,VALID,0,
2009-03-21, 01:18:04,VALID,1008.28,VALID,0,VALID,86.7734,VALID,0,VALID,21.5318,VALID,35,VALID,0,
2009-03-21, 01:19:04,VALID,1008.26,VALID,0,VALID,86.7811,VALID,0,VALID,21.5318,VALID,35,VALID,0,
2009-03-21, 01:20:04,VALID,1008.26,VALID,0,VALID,86.7658,VALID,0,VALID,21.5318,VALID,35,VALID,0,
2009-03-21, 01:21:04,VALID,1008.24,VALID,0,VALID,86.7811,VALID,0,VALID,21.5318,VALID,35,VALID,0,
2009-03-21, 01:22:04,VALID,1008.25,VALID,0,VALID,86.7887,VALID,0,VALID,21.5124,VALID,35,VALID,0,
2009-03-21, 01:23:04,VALID,1008.22,VALID,0,VALID,86.7963,VALID,0,VALID,21.5318,VALID,35,VALID,0,
2009-03-21, 01:24:04,VALID,1008.23,VALID,0,VALID,86.7734,VALID,0,VALID,21.5318,VALID,35,VALID,0,
2009-03-21, 01:25:04,VALID,1008.22,VALID,0,VALID,86.7734,VALID,0,VALID,21.5318,VALID,35,VALID,0,
2009-03-21, 01:26:04,VALID,1008.21,VALID,0,VALID,86.8116,VALID,0,VALID,21.5318,VALID,35,VALID,0,
2009-03-21, 01:27:04,VALID,1008.19,VALID,0,VALID,86.7887,VALID,0,VALID,21.5318,VALID,35,VALID,0,
2009-03-21, 01:28:04,VALID,1008.15,VALID,0,VALID,86.7734,VALID,0,VALID,21.5318,VALID,35,VALID,0,
2009-03-21, 01:29:04,VALID,1008.16,VALID,0,VALID,86.7811,VALID,0,VALID,21.5318,VALID,35,VALID,0,
2009-03-21, 01:30:04,VALID,1008.14,VALID,0,VALID,86.7811,VALID,0,VALID,21.5513,VALID,35,VALID,0,
2009-03-21, 01:31:04,VALID,1008.13,VALID,0,VALID,86.804,VALID,0.105969,VALID,21.5302,VALID,35,VALID,0,
2009-03-21, 01:32:04,VALID,1008.13,VALID,0,VALID,86.7963,VALID,0,VALID,21.5318,VALID,35,VALID,0,
2009-03-21, 01:33:04,VALID,1008.12,VALID,0,VALID,86.804,VALID,0,VALID,21.5318,VALID,35,VALID,0,
2009-03-21, 01:34:04,VALID,1008.13,VALID,0,VALID,86.7963,VALID,0.105969,VALID,21.5318,VALID,35,VALID,0,
2009-03-21, 01:35:04,VALID,1008.11,VALID,0,VALID,86.7658,VALID,0,VALID,21.5318,VALID,35,VALID,0,
2009-03-21, 01:36:04,VALID,1008.12,VALID,0,VALID,86.7963,VALID,0,VALID,21.4913,VALID,35,VALID,0,
2009-03-21, 01:37:04,VALID,1008.13,VALID,0,VALID,86.7963,VALID,0,VALID,21.4929,VALID,35,VALID,0,
2009-03-21, 01:38:04,VALID,1008.1,VALID,0,VALID,86.8116,VALID,0,VALID,21.4523,VALID,35,VALID,0,
2009-03-21, 01:39:04,VALID,1008.13,VALID,0,VALID,86.7887,VALID,0,VALID,21.4539,VALID,35,VALID,0,
2009-03-21, 01:40:04,VALID,1008.13,VALID,0,VALID,86.7887,VALID,0,VALID,21.4539,VALID,35,VALID,0,
2009-03-21, 01:41:04,VALID,1008.13,VALID,0,VALID,86.804,VALID,0,VALID,21.4328,VALID,35,VALID,0,
2009-03-21, 01:42:04,VALID,1008.14,VALID,0,VALID,86.7963,VALID,0,VALID,21.4539,VALID,35,VALID,0,
2009-03-21, 01:43:04,VALID,1008.14,VALID,0,VALID,86.7963,VALID,0,VALID,21.4734,VALID,35,VALID,0,
2009-03-21, 01:44:04,VALID,1008.19,VALID,0,VALID,86.8116,VALID,0,VALID,21.4929,VALID,35,VALID,0,
2009-03-21, 01:45:04,VALID,1008.19,VALID,0,VALID,86.8116,VALID,0,VALID,21.5124,VALID,35,VALID,0,
2009-03-21, 01:46:04,VALID,1008.18,VALID,0,VALID,86.8116,VALID,0.105969,VALID,21.5107,VALID,35,VALID,0,
2009-03-21, 01:47:04,VALID,1008.2,VALID,0,VALID,86.804,VALID,0,VALID,21.5107,VALID,35,VALID,0,
2009-03-21, 01:48:04,VALID,1008.2,VALID,0,VALID,86.7887,VALID,0,VALID,21.5318,VALID,35,VALID,0,
2009-03-21, 01:49:04,VALID,1008.2,VALID,0,VALID,86.7887,VALID,0,VALID,21.4718,VALID,35,VALID,0,
2009-03-21, 01:50:04,VALID,1008.19,VALID,0,VALID,86.7963,VALID,0.105969,VALID,21.4718,VALID,35,VALID,0,
2009-03-21, 01:51:04,VALID,1008.23,VALID,0,VALID,86.7887,VALID,0,VALID,21.4734,VALID,35,VALID,0,
2009-03-21, 01:52:04,VALID,1008.21,VALID,0,VALID,86.7963,VALID,0.105969,VALID,21.4523,VALID,35,VALID,0,
2009-03-21, 01:53:04,VALID,1008.24,VALID,0,VALID,86.804,VALID,0,VALID,21.4539,VALID,35,VALID,0,
2009-03-21, 01:54:04,VALID,1008.24,VALID,0,VALID,86.804,VALID,0.105969,VALID,21.4328,VALID,35,VALID,0,
2009-03-21, 01:55:04,VALID,1008.27,VALID,0,VALID,86.8192,VALID,0,VALID,21.4523,VALID,35,VALID,0,
2009-03-21, 01:56:04,VALID,1008.29,VALID,0,VALID,86.8116,VALID,0.105969,VALID,21.4734,VALID,35,VALID,0,
2009-03-21, 01:57:04,VALID,1008.29,VALID,0,VALID,86.804,VALID,0.105969,VALID,21.4523,VALID,35,VALID,0,
2009-03-21, 01:58:04,VALID,1008.28,VALID,0,VALID,86.804,VALID,0,VALID,21.4734,VALID,35,VALID,0,
2009-03-21, 01:59:04,VALID,1008.27,VALID,0,VALID,86.8192,VALID,0,VALID,21.4523,VALID,35,VALID,0,
2009-03-21, 02:00:04,VALID,1008.28,VALID,0,VALID,86.7963,VALID,0,VALID,21.4539,VALID,35,VALID,0,
2009-03-21, 02:01:04,VALID,1008.27,VALID,0,VALID,86.804,VALID,0.105969,VALID,21.3939,VALID,35,VALID,0,
2009-03-21, 02:02:04,VALID,1008.22,VALID,0,VALID,86.8116,VALID,0,VALID,21.415,VALID,35,VALID,0,
2009-03-21, 02:03:04,VALID,1008.2,VALID,0,VALID,86.8116,VALID,0,VALID,21.376,VALID,35,VALID,0,
2009-03-21, 02:04:04,VALID,1008.22,VALID,0,VALID,86.8116,VALID,0,VALID,21.3355,VALID,35,VALID,0,
2009-03-21, 02:05:04,VALID,1008.2,VALID,0,VALID,86.7963,VALID,0.105969,VALID,21.3566,VALID,35,VALID,0,
2009-03-21, 02:06:04,VALID,1008.22,VALID,0,VALID,86.8116,VALID,0.105969,VALID,21.3355,VALID,31,VALID,0.1625,
2009-03-21, 02:07:04,VALID,1008.19,VALID,0,VALID,86.8116,VALID,0.105969,VALID,21.3566,VALID,21,VALID,0.364844,
2009-03-21, 02:08:04,VALID,1008.19,VALID,0,VALID,86.8268,VALID,0,VALID,21.3744,VALID,15,VALID,0.304297,
2009-03-21, 02:09:04,VALID,1008.16,VALID,0,VALID,86.8268,VALID,0.105969,VALID,21.3939,VALID,15,VALID,0.303516,
2009-03-21, 02:10:04,VALID,1008.15,VALID,0,VALID,86.804,VALID,0,VALID,21.415,VALID,14,VALID,0,
2009-03-21, 02:11:04,VALID,1008.12,VALID,0,VALID,86.7963,VALID,0,VALID,21.376,VALID,14,VALID,0.153125,
2009-03-21, 02:12:04,VALID,1008.08,VALID,0,VALID,86.8192,VALID,0,VALID,21.316,VALID,14,VALID,0,
2009-03-21, 02:13:04,VALID,1008.1,VALID,0,VALID,86.8192,VALID,0.105969,VALID,21.2965,VALID,14,VALID,0,
2009-03-21, 02:14:04,VALID,1008.1,VALID,0,VALID,86.8192,VALID,0.105969,VALID,21.2771,VALID,14,VALID,0,
2009-03-21, 02:15:04,VALID,1008.1,VALID,0,VALID,86.8268,VALID,0,VALID,21.2982,VALID,14,VALID,0,
2009-03-21, 02:16:04,VALID,1008.07,VALID,0,VALID,86.8268,VALID,0.105969,VALID,21.2381,VALID,14,VALID,0,
2009-03-21, 02:17:04,VALID,1008.09,VALID,0,VALID,86.8421,VALID,0.105969,VALID,21.2381,VALID,14,VALID,0,
2009-03-21, 02:18:04,VALID,1008.11,VALID,0,VALID,86.8421,VALID,0,VALID,21.2576,VALID,14,VALID,0,
2009-03-21, 02:19:04,VALID,1008.09,VALID,0,VALID,86.8268,VALID,0.105969,VALID,21.2187,VALID,16,VALID,0,
2009-03-21, 02:20:04,VALID,1008.11,VALID,0,VALID,86.8268,VALID,0,VALID,21.2203,VALID,47,VALID,0,
2009-03-21, 02:21:04,VALID,1008.1,VALID,0,VALID,86.8573,VALID,0,VALID,21.2203,VALID,60,VALID,0,
2009-03-21, 02:22:04,VALID,1008.1,VALID,0,VALID,86.8497,VALID,0.105969,VALID,21.2203,VALID,60,VALID,0,
2009-03-21, 02:23:04,VALID,1008.11,VALID,0,VALID,86.8497,VALID,0.105969,VALID,21.2008,VALID,62,VALID,0,
2009-03-21, 02:24:04,VALID,1008.09,VALID,0,VALID,86.865,VALID,0.105969,VALID,21.2008,VALID,62,VALID,0,
2009-03-21, 02:25:04,VALID,1008.05,VALID,0,VALID,86.8573,VALID,0,VALID,21.1408,VALID,62,VALID,0,
2009-03-21, 02:26:04,VALID,1008.07,VALID,0,VALID,86.8497,VALID,0.105969,VALID,21.1603,VALID,62,VALID,0,
2009-03-21, 02:27:04,VALID,1008.08,VALID,0,VALID,86.8497,VALID,0.105969,VALID,21.1603,VALID,62,VALID,0,
2009-03-21, 02:28:04,VALID,1008.08,VALID,0,VALID,86.8802,VALID,0,VALID,21.1813,VALID,62,VALID,0,
2009-03-21, 02:29:04,VALID,1008.07,VALID,0,VALID,86.8573,VALID,0,VALID,21.1813,VALID,62,VALID,0,
2009-03-21, 02:30:04,VALID,1008.1,VALID,0,VALID,86.8573,VALID,0,VALID,21.2008,VALID,62,VALID,0,
2009-03-21, 02:31:04,VALID,1008.11,VALID,0,VALID,86.865,VALID,0,VALID,21.1797,VALID,61,VALID,0,
2009-03-21, 02:32:04,VALID,1008.11,VALID,0,VALID,86.865,VALID,0,VALID,21.1992,VALID,61,VALID,0,
2009-03-21, 02:33:04,VALID,1008.12,VALID,0,VALID,86.8726,VALID,0,VALID,21.2187,VALID,61,VALID,0,
2009-03-21, 02:34:04,VALID,1008.15,VALID,0,VALID,86.8726,VALID,0,VALID,21.2592,VALID,61,VALID,0,
2009-03-21, 02:35:04,VALID,1008.16,VALID,0,VALID,86.865,VALID,0.105969,VALID,21.2397,VALID,61,VALID,0,
2009-03-21, 02:36:04,VALID,1008.16,VALID,0,VALID,86.8726,VALID,0,VALID,21.2397,VALID,61,VALID,0,
2009-03-21, 02:37:04,VALID,1008.18,VALID,0,VALID,86.8726,VALID,0,VALID,21.1992,VALID,61,VALID,0,
2009-03-21, 02:38:05,VALID,1008.2,VALID,0,VALID,86.8802,VALID,0,VALID,21.2203,VALID,61,VALID,0,
2009-03-21, 02:39:05,VALID,1008.18,VALID,0,VALID,86.8802,VALID,0,VALID,21.2008,VALID,61,VALID,0,
2009-03-21, 02:40:05,VALID,1008.19,VALID,0,VALID,86.8802,VALID,0,VALID,21.2008,VALID,61,VALID,0,
2009-03-21, 02:41:05,VALID,1008.17,VALID,0,VALID,86.8802,VALID,0,VALID,21.2008,VALID,61,VALID,0,
2009-03-21, 02:42:05,VALID,1008.19,VALID,0,VALID,86.8726,VALID,0,VALID,21.1813,VALID,61,VALID,0,
2009-03-21, 02:43:05,VALID,1008.19,VALID,0,VALID,86.8955,VALID,0,VALID,21.1619,VALID,61,VALID,0,
2009-03-21, 02:44:05,VALID,1008.18,VALID,0,VALID,86.8955,VALID,0,VALID,21.1408,VALID,61,VALID,0,
2009-03-21, 02:45:05,VALID,1008.19,VALID,0,VALID,86.9031,VALID,0,VALID,21.1424,VALID,61,VALID,0,
2009-03-21, 02:46:05,VALID,1008.2,VALID,0,VALID,86.9031,VALID,0,VALID,21.1019,VALID,61,VALID,0,
2009-03-21, 02:47:05,VALID,1008.22,VALID,0,VALID,86.9107,VALID,0,VALID,21.1229,VALID,61,VALID,0,
2009-03-21, 02:48:05,VALID,1008.24,VALID,0,VALID,86.9107,VALID,0,VALID,21.1035,VALID,61,VALID,0,
2009-03-21, 02:49:05,VALID,1008.25,VALID,0,VALID,86.926,VALID,0,VALID,21.1019,VALID,61,VALID,0,
2009-03-21, 02:50:05,VALID,1008.26,VALID,0,VALID,86.9183,VALID,0,VALID,21.0824,VALID,61,VALID,0,
2009-03-21, 02:51:05,VALID,1008.27,VALID,0,VALID,86.9107,VALID,0.105969,VALID,21.084,VALID,134,VALID,0,
2009-03-21, 02:52:05,VALID,1008.27,VALID,0,VALID,86.926,VALID,0.105969,VALID,21.1213,VALID,101,VALID,0,
2009-03-21, 02:53:05,VALID,1008.29,VALID,0,VALID,86.9107,VALID,0,VALID,21.2008,VALID,101,VALID,0,
2009-03-21, 02:54:05,VALID,1008.28,VALID,0,VALID,86.9412,VALID,0,VALID,21.2008,VALID,101,VALID,0.765625,
2009-03-21, 02:55:05,VALID,1008.26,VALID,0,VALID,86.926,VALID,0,VALID,21.2203,VALID,106,VALID,0.580859,
2009-03-21, 02:56:05,VALID,1008.24,VALID,0,VALID,86.9488,VALID,0,VALID,21.2203,VALID,102,VALID,0.374609,
2009-03-21, 02:57:05,VALID,1008.26,VALID,0,VALID,86.9336,VALID,0,VALID,21.2008,VALID,80,VALID,0.274609,
2009-03-21, 02:58:05,VALID,1008.22,VALID,0,VALID,86.9183,VALID,0,VALID,21.1813,VALID,80,VALID,0,
2009-03-21, 02:59:05,VALID,1008.25,VALID,0,VALID,86.9336,VALID,0,VALID,21.1813,VALID,93,VALID,0,
2009-03-21, 03:00:05,VALID,1008.28,VALID,0,VALID,86.9336,VALID,0,VALID,21.1619,VALID,92,VALID,0,
2009-03-21, 03:01:05,VALID,1008.31,VALID,0,VALID,86.9336,VALID,0,VALID,21.1619,VALID,92,VALID,0,
2009-03-21, 03:02:05,VALID,1008.35,VALID,0,VALID,86.9412,VALID,0,VALID,21.1408,VALID,92,VALID,0,
2009-03-21, 03:03:05,VALID,1008.36,VALID,0,VALID,86.9641,VALID,0,VALID,21.1424,VALID,92,VALID,0,
2009-03-21, 03:04:05,VALID,1008.36,VALID,0,VALID,86.9412,VALID,0,VALID,21.1619,VALID,92,VALID,0,
2009-03-21, 03:05:05,VALID,1008.38,VALID,0,VALID,86.9488,VALID,0,VALID,21.1619,VALID,92,VALID,0,
2009-03-21, 03:06:05,VALID,1008.39,VALID,0,VALID,86.9488,VALID,0,VALID,21.1619,VALID,94,VALID,0,
2009-03-21, 03:07:05,VALID,1008.38,VALID,0,VALID,86.9488,VALID,0,VALID,21.1603,VALID,105,VALID,0.578516,
2009-03-21, 03:08:05,VALID,1008.39,VALID,0,VALID,86.9412,VALID,0,VALID,21.1408,VALID,97,VALID,0.63125,
2009-03-21, 03:09:05,VALID,1008.38,VALID,0,VALID,86.9717,VALID,0,VALID,21.1619,VALID,121,VALID,0.382422,
2009-03-21, 03:10:05,VALID,1008.4,VALID,0,VALID,86.9565,VALID,0,VALID,21.1813,VALID,128,VALID,0.767187,
2009-03-21, 03:11:05,VALID,1008.37,VALID,0,VALID,86.9565,VALID,0,VALID,21.1813,VALID,133,VALID,0.609766,
2009-03-21, 03:12:05,VALID,1008.39,VALID,0,VALID,86.9565,VALID,0,VALID,21.1813,VALID,123,VALID,0.838281,
2009-03-21, 03:13:05,VALID,1008.4,VALID,0,VALID,86.9641,VALID,0,VALID,21.1408,VALID,127,VALID,0.542969,
2009-03-21, 03:14:05,VALID,1008.4,VALID,0,VALID,86.9717,VALID,0,VALID,21.1424,VALID,135,VALID,0.535156,
2009-03-21, 03:15:05,VALID,1008.42,VALID,0,VALID,86.9717,VALID,0,VALID,21.1229,VALID,149,VALID,0.431641,
2009-03-21, 03:16:05,VALID,1008.45,VALID,0,VALID,86.9793,VALID,0,VALID,21.1035,VALID,149,VALID,0.371094,
2009-03-21, 03:17:05,VALID,1008.43,VALID,0,VALID,87.0022,VALID,0,VALID,21.0824,VALID,145,VALID,0.697266,
2009-03-21, 03:18:05,VALID,1008.42,VALID,0,VALID,86.9946,VALID,0,VALID,21.1035,VALID,113,VALID,0.537109,
2009-03-21, 03:19:05,VALID,1008.42,VALID,0,VALID,86.9946,VALID,0,VALID,21.1229,VALID,119,VALID,0.465234,
2009-03-21, 03:20:05,VALID,1008.42,VALID,0,VALID,87.0175,VALID,0,VALID,21.1229,VALID,119,VALID,0,
2009-03-21, 03:21:05,VALID,1008.41,VALID,0,VALID,87.0175,VALID,0,VALID,21.1019,VALID,119,VALID,0.00117188,
2009-03-21, 03:22:05,VALID,1008.45,VALID,0,VALID,86.987,VALID,0,VALID,21.1424,VALID,120,VALID,0.316406,
2009-03-21, 03:23:05,VALID,1008.45,VALID,0,VALID,86.9946,VALID,0,VALID,21.1213,VALID,120,VALID,0.550391,
2009-03-21, 03:24:05,VALID,1008.46,VALID,0,VALID,87.0022,VALID,0,VALID,21.1603,VALID,96,VALID,0.459375,
2009-03-21, 03:25:05,VALID,1008.41,VALID,0,VALID,87.0175,VALID,0,VALID,21.1813,VALID,96,VALID,0.514453,
2009-03-21, 03:26:05,VALID,1008.41,VALID,0,VALID,87.0175,VALID,0,VALID,21.2203,VALID,88,VALID,0.610547,
2009-03-21, 03:27:05,VALID,1008.43,VALID,0,VALID,86.9946,VALID,0,VALID,21.2187,VALID,86,VALID,0.347266,
2009-03-21, 03:28:05,VALID,1008.44,VALID,0,VALID,87.0022,VALID,0,VALID,21.2187,VALID,81,VALID,0.475781,
2009-03-21, 03:29:05,VALID,1008.45,VALID,0,VALID,87.0022,VALID,0.105969,VALID,21.2397,VALID,67,VALID,0.321875,
2009-03-21, 03:30:05,VALID,1008.45,VALID,0,VALID,86.9946,VALID,0,VALID,21.1992,VALID,67,VALID,0,
2009-03-21, 03:31:05,VALID,1008.43,VALID,0,VALID,87.0022,VALID,0,VALID,21.2203,VALID,67,VALID,0,
2009-03-21, 03:32:05,VALID,1008.46,VALID,0,VALID,87.0175,VALID,0,VALID,21.2203,VALID,67,VALID,0.00195313,
2009-03-21, 03:33:05,VALID,1008.47,VALID,0,VALID,87.0022,VALID,0.105969,VALID,21.1992,VALID,67,VALID,0,
2009-03-21, 03:34:05,VALID,1008.51,VALID,0,VALID,87.0251,VALID,0,VALID,21.1992,VALID,67,VALID,0,
2009-03-21, 03:35:05,VALID,1008.49,VALID,0,VALID,87.0098,VALID,0.105969,VALID,21.1797,VALID,67,VALID,0,
2009-03-21, 03:36:05,VALID,1008.48,VALID,0,VALID,87.0175,VALID,0,VALID,21.1797,VALID,67,VALID,0,
2009-03-21, 03:37:05,VALID,1008.49,VALID,0,VALID,87.0175,VALID,0.105969,VALID,21.1797,VALID,67,VALID,0,
2009-03-21, 03:38:05,VALID,1008.5,VALID,0,VALID,87.0251,VALID,0.105969,VALID,21.2008,VALID,67,VALID,0,
2009-03-21, 03:39:05,VALID,1008.49,VALID,0,VALID,87.0175,VALID,0.105969,VALID,21.2008,VALID,67,VALID,0,
2009-03-21, 03:40:05,VALID,1008.45,VALID,0,VALID,87.0327,VALID,0,VALID,21.1603,VALID,67,VALID,0,
2009-03-21, 03:41:05,VALID,1008.48,VALID,0,VALID,87.0404,VALID,0,VALID,21.1797,VALID,67,VALID,0,
2009-03-21, 03:42:05,VALID,1008.46,VALID,0,VALID,87.0327,VALID,0,VALID,21.1797,VALID,67,VALID,0,
2009-03-21, 03:43:05,VALID,1008.46,VALID,0,VALID,87.0251,VALID,0,VALID,21.1813,VALID,67,VALID,0,
2009-03-21, 03:44:05,VALID,1008.46,VALID,0,VALID,87.0404,VALID,0,VALID,21.2008,VALID,67,VALID,0,
2009-03-21, 03:45:05,VALID,1008.46,VALID,0,VALID,87.0251,VALID,0,VALID,21.1797,VALID,67,VALID,0,
2009-03-21, 03:46:05,VALID,1008.49,VALID,0,VALID,87.0404,VALID,0,VALID,21.2008,VALID,67,VALID,0,
2009-03-21, 03:47:05,VALID,1008.46,VALID,0,VALID,87.0404,VALID,0,VALID,21.1797,VALID,67,VALID,0,
2009-03-21, 03:48:05,VALID,1008.48,VALID,0,VALID,87.0327,VALID,0.105969,VALID,21.1813,VALID,67,VALID,0,
2009-03-21, 03:49:05,VALID,1008.49,VALID,0,VALID,87.048,VALID,0,VALID,21.1813,VALID,67,VALID,0,
2009-03-21, 03:50:05,VALID,1008.52,VALID,0,VALID,87.0404,VALID,0,VALID,21.1619,VALID,67,VALID,0,
2009-03-21, 03:51:05,VALID,1008.53,VALID,0,VALID,87.0632,VALID,0,VALID,21.1424,VALID,67,VALID,0,
2009-03-21, 03:52:05,VALID,1008.56,VALID,0,VALID,87.0556,VALID,0,VALID,21.1229,VALID,67,VALID,0,
2009-03-21, 03:53:05,VALID,1008.57,VALID,0,VALID,87.0556,VALID,0.105969,VALID,21.1213,VALID,67,VALID,0,
2009-03-21, 03:54:05,VALID,1008.58,VALID,0,VALID,87.0632,VALID,0,VALID,21.1408,VALID,67,VALID,0,
2009-03-21, 03:55:05,VALID,1008.57,VALID,0,VALID,87.0785,VALID,0.105969,VALID,21.1619,VALID,67,VALID,0,